This demonstration page uses our WeatherBlox Daily Observations layout. Learn more.

Left ArrowRight Arrow

Hourly Observations for October 11, 2015

Temp ( °F °C ) Dew Point ( °F °C ) Humidity (%) Winds ( mph kmh ) Pressure ( in mb ) Visibility ( mi km ) Precip ( " mm )
12:53 am 00:53 Clear 67 19.4 49 9.4 53 53 Calm 29.96 1014 10 16 0.00 0.00
1:53 am 01:53 Clear 64 17.8 48 8.9 56 56 N 6 9 29.96 1015 10 16 0.00 0.00
2:53 am 02:53 Clear 65 18.3 48 8.9 54 54 undefined N/A 29.98 1015 10 16 0.00 0.00
3:53 am 03:53 Clear 60 15.6 47 8.3 62 62 N 6 9 29.99 1016 10 16 0.00 0.00
4:53 am 04:53 Clear 62 16.7 47 8.3 58 58 N 6 9 29.99 1016 10 16 0.00 0.00
5:53 am 05:53 Clear 62 16.7 47 8.3 58 58 NNW 6 9 30.01 1016 10 16 0.00 0.00
6:53 am 06:53 Clear 59 15 47 8.3 64 64 Calm 30.01 1016 10 16 0.00 0.00
7:53 am 07:53 Sunny 59 15 47 8.3 64 64 Calm 30.01 1016 10 16 0.00 0.00
8:53 am 08:53 Sunny 70 21.1 49 9.4 47 47 NNW 3 6 30.02 1017 10 16 0.00 0.00
9:53 am 09:53 Sunny 77 25 48 8.9 36 36 N 7 11 30.01 1016 10 16 0.00 0.00
10:53 am 10:53 Sunny 80 26.7 47 8.3 31 31 N 5 7 30.00 1016 10 16 0.00 0.00
11:53 am 11:53 Sunny 84 28.9 47 8.3 27 27 NNW 8 13 29.98 1015 10 16 0.00 0.00
12:53 pm 12:53 Sunny 87 30.6 46 7.8 24 24 Calm 29.96 1014 10 16 0.00 0.00
1:53 pm 13:53 Sunny 90 32.2 44 6.7 20 20 ENE 6 9 29.93 1014 10 16 0.00 0.00
2:53 pm 14:53 Sunny 91 32.8 43 6.1 19 19 SSW 7 11 29.91 1013 10 16 0.00 0.00
3:53 pm 15:53 Sunny 91 32.8 43 6.1 19 19 SSW 6 9 29.89 1012 10 16 0.00 0.00
4:53 pm 16:53 Sunny 91 32.8 42 5.6 18 18 S 6 9 29.88 1012 10 16 0.00 0.00
5:53 pm 17:53 Sunny 90 32.2 40 4.4 17 17 SSW 5 7 29.88 1012 10 16 0.00 0.00
6:53 pm 18:53 Clear 82 27.8 43 6.1 25 25 Calm 29.89 1012 10 16 0.00 0.00
7:53 pm 19:53 Clear 77 25 43 6.1 30 30 Calm 29.91 1013 10 16 0.00 0.00
8:53 pm 20:53 Clear 72 22.2 44 6.7 37 37 Calm 29.92 1013 10 16 0.00 0.00
9:53 pm 21:53 Clear 67 19.4 45 7.2 45 45 NW 3 6 29.93 1014 10 16 0.00 0.00
10:53 pm 22:53 Clear 65 18.3 45 7.2 49 49 Calm 29.95 1014 10 16 0.00 0.00
11:53 pm 23:53 Clear 62 16.7 45 7.2 54 54 Calm 29.95 1014 10 16 0.00 0.00

Powered by AerisWeather